Weather Roundup
Issued by NWS

Home | Current Version | Previous Version | Text Only | Print | Product List | Glossary On
Versions: 1 2 3 4 5 6 7 8 9 10 11 12 13 14 15 16 17 18 19 20 21 22 23 24 25 26 27 28 29 30 31 32 33 34 35 36 37 38 39 40 41 42 43 44 45 46 47 48 49 50
733
NZUS93 KARX 240110
HRRWXR

CURRENT HOURLY OBSERVATIONS ACROSS
MUCH OF THE UPPER MISSISSIPPI VALLEY
NATIONAL WEATHER SERVICE LA CROSSE WI
700 PM CST THU NOV 23 2017


...SOUTHEAST MINNESOTA...


CITY           SKY/WX    TMP DP  RH WIND       PRES   REMARKS
ROCHESTER      CLEAR     36  27  69 S10       29.79F WCI  28
ROCHESTER/MAYO FAIR      39  26  59 S8        29.78F WCI  33
WINONA         CLEAR     34  27  75 CALM      29.82F
AUSTIN         CLEAR     36  27  69 S9        29.80F WCI  29
ALBERT LEA     CLEAR     43  27  52 S8        29.78F
DODGE CENTER   CLEAR     36  27  69 S10       29.78F WCI  28
PRESTON        CLEAR     35  25  68 S9        29.81F WCI  27
OWATONNA       CLEAR     43  28  56 S12G18    29.77F
FARIBAULT      CLEAR     39  28  65 S9        29.76F WCI  33
$$

...ELSEWHERE IN MINNESOTA...


CITY           SKY/WX    TMP DP  RH WIND       PRES   REMARKS
MINNEAPOLIS    PTCLDY    42  28  57 S9        29.73F
INTNL FALLS    PTCLDY    30  23  75 SE6       29.53F WCI  24
DULUTH         CLOUDY    34  25  69 S10       29.62F WCI  26
RED WING       MOCLDY    37  25  60 SE5       29.76F WCI  34
REDWOOD FALLS  CLEAR     41  28  60 S13       29.67F
MANKATO        CLEAR     41  29  62 S9        29.75F
WORTHINGTON    CLEAR     47  33  58 S14       29.73F
FAIRMONT       CLEAR     40  30  67 S13       29.76F WCI  32
$$

...SOUTHWEST WISCONSIN...


CITY           SKY/WX    TMP DP  RH WIND       PRES   REMARKS
LA CROSSE      CLEAR     34  24  67 S8        29.83F WCI  27
PRAIRIE DU CHI CLEAR     32  24  70 CALM      29.87F
BOSCOBEL       CLEAR     30  23  75 CALM      29.89S
LONE ROCK      NOT AVBL
PLATTEVILLE    CLEAR     36  27  68 S8        29.88F WCI  30
FORT MC COY    CLEAR     27  21  77 E3        29.85F
CAMP DOUGLAS   CLEAR     26  20  78 CALM      29.84S
MAUSTON-NEW LI CLEAR     29  23  77 CALM      29.85S
VIROQUA        FAIR      36  25  64 S6        29.84F WCI  32
WIS DELLS      CLEAR     34  22  60 CALM      29.86S
$$

...ELSEWHERE IN WISCONSIN...


CITY           SKY/WX    TMP DP  RH WIND       PRES   REMARKS
MILWAUKEE      CLEAR     37  24  59 SW5       29.89F WCI  33
MADISON        CLEAR     33  23  66 CALM      29.88S
GREEN BAY      CLOUDY    34  25  69 S6        29.85F WCI  29
EAU CLAIRE     PTCLDY    35  21  56 S7        29.77F WCI  29
BLACK RVR FLS  FAIR      25  18  74 CALM      29.82F
MEDFORD        CLOUDY    32  23  70 S8        29.77F WCI  25
WAUSAU         CLEAR     31  22  69 SE3       29.81F
WIS RAPIDS     CLEAR     29  21  72 CALM      29.86R
MARSHFIELD     CLEAR     31  21  66 S6        29.80F WCI  25
RICE LAKE      CLOUDY    37  24  58 SE8       29.75F WCI  31
$$

...NORTHEAST IOWA...


CITY           SKY/WX    TMP DP  RH WIND       PRES   REMARKS
WATERLOO       CLEAR     34  25  69 S5        29.87F WCI  30
DUBUQUE        CLEAR     33  25  72 S6        29.88F WCI  28
DECORAH        CLEAR     39  27  60 S6        29.84F WCI  35
MASON CITY     CLEAR     35  27  72 S10       29.83F WCI  27
CHARLES CITY   CLEAR     37  27  65 S8        29.85S WCI  31
OELWEIN        CLEAR     34  27  75 S8        29.86F WCI  27
$$

...ELSEWHERE IN IOWA...


CITY           SKY/WX    TMP DP  RH WIND       PRES   REMARKS
DES MOINES     MOCLDY    46  32  58 SE8       29.88F
IOWA CITY      CLEAR     37  28  70 CALM      29.92F
FORT DODGE     CLOUDY    47  31  53 S7        29.83S
MARSHALLTOWN   CLEAR     40  30  67 S8        29.87S WCI  34
CEDAR RAPIDS   CLEAR     34  27  75 S5        29.88F WCI  30
$$

...NORTHERN ILLINOIS...


CITY           SKY/WX    TMP DP  RH WIND       PRES   REMARKS
CHICAGO-OHARE  PTCLDY    37  26  64 S3        29.92F
CHICAGO-MIDWAY PTCLDY    40  27  59 S3        29.93F
MOLINE         CLEAR     33  25  72 CALM      29.92S
ROCKFORD       CLEAR     35  25  66 SE7       29.92F WCI  29
PEORIA         CLEAR     37  26  64 CALM      29.95F
$$

NOTE: "FAIR" INDICATES FEW OR NO CLOUDS BELOW 12,000 FEET WITH NO
SIGNIFICANT WEATHER AND/OR OBSTRUCTIONS TO VISIBILITY. WIND
SPEEDS ARE IN MILES-PER-HOUR.




USA.gov is the U.S. government's official web portal to all federal, state and local government web resources and services.